KQ4Q-4 Weather Reports


time (UTC)temp
C
wind
direction
speed
KPH
gust
KPH
rain 1hr
cm
rain 24hr
cm
rain mn
cm
humidity
%
barometer
mb
20260906112106 18 2 0.0 0.0 0.00 0.00 0.00 96 1016.5
20260906111606 18 360 0.0 0.0 0.00 0.00 0.00 96 1016.5
20260906111106 18 100 0.0 0.0 0.00 0.00 0.00 96 1016.4
20260906110608 18 113 1.6 1.6 0.00 0.00 0.00 96 1016.4
20260906110107 18 160 1.6 1.6 0.00 0.00 0.00 96 1016.3
20260906105606 18 65 0.0 1.6 0.00 0.00 0.00 96 1016.2
20260906105106 18 360 0.0 0.0 0.00 0.00 0.00 96 1016.1
20260906104607 18 334 0.0 0.0 0.00 0.00 0.00 96 1016.0
20260906104106 18 15 1.6 1.6 0.00 0.00 0.00 97 1016.1
20260906103607 18 10 1.6 3.2 0.00 0.00 0.00 97 1016.1
20260906103107 18 360 0.0 0.0 0.00 0.00 0.00 97 1016.1
20260906102606 18 360 0.0 0.0 0.00 0.00 0.00 97 1016.1
20260906102107 18 340 0.0 1.6 0.00 0.00 0.00 97 1016.1
20260906101606 18 115 0.0 0.0 0.00 0.00 0.00 97 1016.1
20260906101106 18 360 0.0 0.0 0.00 0.00 0.00 97 1016.1
20260906100606 18 360 0.0 0.0 0.00 0.00 0.00 97 1016.0
20260906100106 18 360 0.0 0.0 0.00 0.00 0.00 97 1016.0
20260906095606 18 360 0.0 0.0 0.00 0.00 0.00 97 1016.0
20260906095106 18 360 0.0 0.0 0.00 0.00 0.00 97 1016.0
20260906094606 18 310 0.0 0.0 0.00 0.00 0.00 97 1016.0
20260906094106 18 160 0.0 1.6 0.00 0.00 0.00 97 1015.9
20260906093606 18 360 0.0 0.0 0.00 0.00 0.00 97 1015.9
20260906093106 18 16 0.0 0.0 0.00 0.00 0.00 97 1015.9
20260906092606 18 9 3.2 3.2 0.00 0.00 0.00 97 1015.9
20260906092107 18 135 3.2 3.2 0.00 0.00 0.00 97 1015.7
20260906091606 18 116 3.2 3.2 0.00 0.00 0.00 97 1015.8
20260906091106 18 134 1.6 1.6 0.00 0.00 0.00 97 1015.8
20260906090607 18 360 0.0 0.0 0.00 0.00 0.00 97 1015.8
20260906090106 18 142 1.6 1.6 0.00 0.00 0.00 97 1015.7
20260906085606 18 325 1.6 3.2 0.00 0.00 0.00 97 1015.8
20260906085106 18 276 1.6 1.6 0.00 0.00 0.00 97 1015.7
20260906084607 18 109 0.0 0.0 0.00 0.00 0.00 97 1015.7
20260906084107 18 308 0.0 1.6 0.00 0.00 0.00 97 1015.7
20260906083606 18 360 0.0 0.0 0.00 0.00 0.00 97 1015.5
20260906083106 18 360 0.0 0.0 0.00 0.00 0.00 97 1015.5
20260906082606 18 207 1.6 1.6 0.00 0.00 0.00 97 1015.6
20260906082107 17 284 0.0 0.0 0.00 0.00 0.00 97 1015.6
20260906081606 17 24 0.0 0.0 0.00 0.00 0.00 97 1015.6
20260906081106 18 360 0.0 0.0 0.00 0.00 0.00 97 1015.6
20260906080606 18 254 0.0 0.0 0.00 0.00 0.00 96 1015.7
20260906080107 18 34 0.0 0.0 0.00 0.00 0.00 96 1015.7
20260906075606 18 321 0.0 1.6 0.00 0.00 0.00 96 1015.8
20260906075106 18 270 0.0 0.0 0.00 0.00 0.00 96 1015.7
20260906074607 18 360 0.0 0.0 0.00 0.00 0.00 96 1015.7
20260906074106 18 159 0.0 1.6 0.00 0.00 0.00 96 1015.7
20260906073608 18 360 0.0 0.0 0.00 0.00 0.00 96 1015.7
20260906073106 18 360 0.0 0.0 0.00 0.00 0.00 96 1015.8
20260906072606 18 300 1.6 1.6 0.00 0.00 0.00 96 1015.9
20260906072106 18 302 0.0 1.6 0.00 0.00 0.00 96 1015.9
20260906071607 18 313 1.6 1.6 0.00 0.00 0.00 96 1016.0
20260906071106 18 360 0.0 0.0 0.00 0.00 0.00 96 1016.1
20260906070607 18 360 0.0 0.0 0.00 0.00 0.00 96 1016.1
20260906070107 18 205 1.6 1.6 0.00 0.00 0.00 96 1016.0
20260906065606 18 360 0.0 0.0 0.00 0.00 0.00 96 1015.9
20260906065106 18 201 1.6 1.6 0.00 0.00 0.00 96 1015.9
20260906064606 18 192 1.6 1.6 0.00 0.00 0.00 96 1016.0
20260906064107 18 265 1.6 1.6 0.00 0.00 0.00 96 1016.1
20260906063607 18 242 0.0 1.6 0.00 0.00 0.00 96 1016.0
20260906063107 18 242 0.0 0.0 0.00 0.00 0.00 96 1016.0
20260906062606 18 157 0.0 1.6 0.00 0.00 0.00 96 1015.9
20260906062107 18 123 0.0 0.0 0.00 0.00 0.00 96 1016.1
20260906061607 18 123 3.2 3.2 0.00 0.00 0.00 96 1016.1
20260906061106 18 107 0.0 1.6 0.00 0.00 0.00 96 1016.1
20260906060120 18 360 0.0 0.0 0.00 0.00 0.00 96 1016.4
20260906055607 18 274 0.0 0.0 0.00 0.00 0.00 96 1016.5
20260906055106 18 326 0.0 1.6 0.00 0.00 0.00 96 1016.5
20260906054607 18 252 0.0 1.6 0.00 0.00 0.00 96 1016.5
20260906054106 18 360 0.0 0.0 0.00 0.00 0.00 96 1016.5
20260906053607 18 360 0.0 0.0 0.00 0.00 0.00 96 1016.5
20260906053106 18 359 0.0 0.0 0.00 0.00 0.00 96 1016.4
20260906052606 18 353 0.0 1.6 0.00 0.00 0.00 96 1016.4
20260906052106 19 347 0.0 0.0 0.00 0.00 0.00 96 1016.4
20260906051606 19 360 0.0 0.0 0.00 0.00 0.00 95 1016.4
20260906051106 19 360 0.0 0.0 0.00 0.00 0.00 95 1016.5
20260906050607 19 360 0.0 0.0 0.00 0.00 0.00 95 1016.6
20260906050106 19 223 1.6 3.2 0.00 0.00 0.00 95 1016.8
20260906045607 19 227 0.0 1.6 0.00 0.00 0.00 95 1016.6
20260906045106 19 233 3.2 4.8 0.00 0.00 0.00 95 1016.5
20260906044606 19 217 3.2 3.2 0.00 0.00 0.00 95 1016.5
20260906044107 19 269 1.6 1.6 0.00 0.00 0.00 95 1016.5
20260906043606 19 240 1.6 3.2 0.00 0.00 0.00 95 1016.4
20260906043107 19 235 1.6 3.2 0.00 0.00 0.00 95 1016.3
20260906042607 19 192 0.0 1.6 0.00 0.00 0.00 95 1016.2
20260906042107 19 357 0.0 0.0 0.00 0.00 0.00 94 1016.1
20260906041606 19 309 1.6 1.6 0.00 0.00 0.00 94 1016.2
20260906041107 19 328 0.0 0.0 0.00 0.00 0.00 94 1016.3
20260906040607 19 310 0.0 0.0 0.00 0.00 0.00 94 1016.4
20260906040106 19 107 0.0 0.0 0.00 0.00 0.00 94 1016.4
20260906035608 20 226 1.6 1.6 0.00 0.00 0.00 94 1016.5
20260906035106 20 360 0.0 0.0 0.00 0.00 0.00 94 1016.5
20260906034606 20 360 0.0 0.0 0.00 0.00 0.00 94 1016.4
20260906034106 20 334 0.0 1.6 0.00 0.00 0.00 94 1016.5
20260906033606 20 42 0.0 1.6 0.00 0.00 0.00 94 1016.5
20260906033106 20 360 0.0 0.0 0.00 0.00 0.00 93 1016.8
20260906032606 20 297 0.0 1.6 0.00 0.00 0.00 93 1016.9
20260906032107 20 261 0.0 0.0 0.00 0.00 0.00 93 1016.9
20260906031606 20 360 0.0 0.0 0.00 0.00 0.00 93 1016.9
20260906031106 20 11 0.0 1.6 0.00 0.00 0.00 93 1017.0
20260906030606 20 360 0.0 0.0 0.00 0.00 0.00 93 1017.1
20260906030106 20 146 0.0 1.6 0.00 0.00 0.00 93 1017.1
20260906025607 20 270 0.0 1.6 0.00 0.00 0.00 92 1017.2
20260906025108 20 162 0.0 1.6 0.00 0.00 0.00 92 1017.2
20260906024606 20 360 0.0 0.0 0.00 0.00 0.00 92 1017.2
20260906024107 21 223 1.6 3.2 0.00 0.00 0.00 92 1017.3
20260906023606 21 270 0.0 0.0 0.00 0.00 0.00 92 1017.4
20260906023106 21 228 0.0 1.6 0.00 0.00 0.00 92 1017.2
20260906022606 21 214 1.6 3.2 0.00 0.00 0.00 92 1017.2
20260906022107 21 225 1.6 3.2 0.00 0.00 0.00 91 1017.3
20260906021607 21 223 1.6 3.2 0.00 0.00 0.00 91 1017.4
20260906021106 21 290 1.6 1.6 0.00 0.00 0.00 91 1017.3
20260906020606 21 233 1.6 3.2 0.00 0.00 0.00 91 1017.3
20260906020106 21 273 0.0 1.6 0.00 0.00 0.00 91 1017.2
20260906015606 21 328 1.6 3.2 0.00 0.00 0.00 91 1017.2
20260906015108 21 312 1.6 3.2 0.00 0.00 0.00 91 1017.1
20260906014607 21 5 0.0 1.6 0.00 0.00 0.00 91 1017.1
20260906014106 21 225 0.0 1.6 0.00 0.00 0.00 91 1017.1
20260906013606 21 229 0.0 1.6 0.00 0.00 0.00 91 1017.1
20260906013107 21 283 0.0 1.6 0.00 0.00 0.00 91 1017.1
20260906012607 21 258 1.6 1.6 0.00 0.00 0.00 90 1017.0
20260906012107 21 252 1.6 1.6 0.00 0.00 0.00 90 1016.9
20260906011607 21 276 3.2 3.2 0.00 0.00 0.00 90 1016.9
20260906011107 21 283 0.0 1.6 0.00 0.00 0.00 89 1016.6
20260906010607 21 239 0.0 1.6 0.00 0.00 0.00 88 1016.6
20260906010106 21 239 1.6 1.6 0.00 0.00 0.00 88 1016.5
20260906005606 21 26 0.0 1.6 0.00 0.00 0.00 87 1016.5
20260906005106 21 268 0.0 1.6 0.00 0.00 0.00 87 1016.5
20260906004606 21 251 1.6 3.2 0.00 0.00 0.00 87 1016.5
20260906004106 22 311 1.6 3.2 0.00 0.00 0.00 86 1016.5
20260906003606 22 276 0.0 0.0 0.00 0.00 0.00 85 1016.4
20260906003106 22 258 1.6 1.6 0.00 0.00 0.00 84 1016.3
20260906002606 22 279 0.0 0.0 0.00 0.00 0.00 83 1016.2
20260906002106 22 360 0.0 0.0 0.00 0.00 0.00 83 1016.2
20260906001607 22 360 0.0 0.0 0.00 0.00 0.00 82 1016.2
20260906001107 22 324 1.6 1.6 0.00 0.00 0.00 82 1016.4
20260906000606 22 277 1.6 1.6 0.00 0.00 0.00 81 1016.4
20260906000107 23 229 0.0 1.6 0.00 0.00 0.00 80 1016.4
20260905235606 23 212 3.2 6.4 0.00 0.00 0.00 79 1016.4
20260905235106 24 217 4.8 6.4 0.00 0.00 0.00 76 1016.3
20260905234607 24 245 1.6 3.2 0.00 0.00 0.00 72 1016.2
20260905234106 25 310 3.2 6.4 0.00 0.00 0.00 69 1016.2
20260905233607 25 256 1.6 3.2 0.00 0.00 0.00 69 1016.0
20260905233107 25 266 0.0 1.6 0.00 0.00 0.00 68 1016.0
20260905232606 25 189 1.6 3.2 0.00 0.00 0.00 68 1016.0
20260905232106 25 44 1.6 3.2 0.00 0.00 0.00 67 1016.0
20260905231606 25 291 1.6 3.2 0.00 0.00 0.00 65 1015.9
20260905231106 26 305 1.6 3.2 0.00 0.00 0.00 64 1016.0
20260905230606 26 244 3.2 4.8 0.00 0.00 0.00 65 1016.1
20260905230108 26 263 4.8 6.4 0.00 0.00 0.00 64 1016.1
20260905225606 26 319 3.2 4.8 0.00 0.00 0.00 63 1016.1
20260905225106 26 284 1.6 3.2 0.00 0.00 0.00 63 1016.1
20260905224606 26 292 3.2 3.2 0.00 0.00 0.00 62 1016.1
20260905224107 26 269 3.2 6.4 0.00 0.00 0.00 62 1016.0
20260905223606 27 253 3.2 6.4 0.00 0.00 0.00 61 1016.1
20260905223106 27 306 3.2 3.2 0.00 0.00 0.00 60 1016.1
20260905222607 27 350 6.4 9.7 0.00 0.00 0.00 59 1016.2
20260905222107 27 305 4.8 6.4 0.00 0.00 0.00 59 1016.1
20260905221606 28 358 4.8 6.4 0.00 0.00 0.00 58 1016.0
20260905221106 28 280 3.2 6.4 0.00 0.00 0.00 58 1016.0
20260905220606 28 264 4.8 6.4 0.00 0.00 0.00 56 1015.9
20260905220106 28 293 6.4 9.7 0.00 0.00 0.00 56 1015.9
20260905215606 28 255 3.2 6.4 0.00 0.00 0.00 56 1015.9
20260905215106 27 317 3.2 4.8 0.00 0.00 0.00 57 1015.8
20260905214606 27 268 3.2 4.8 0.00 0.00 0.00 57 1015.8
20260905214106 27 272 4.8 8.0 0.00 0.00 0.00 56 1015.7
20260905213606 27 230 3.2 4.8 0.00 0.00 0.00 56 1015.6
20260905213107 27 255 3.2 6.4 0.00 0.00 0.00 56 1015.6
20260905212606 27 261 3.2 6.4 0.00 0.00 0.00 56 1015.6
20260905212106 27 282 8.0 12.9 0.00 0.00 0.00 57 1015.6
20260905211607 27 279 4.8 9.7 0.00 0.00 0.00 55 1015.5
20260905211106 27 270 9.7 14.5 0.00 0.00 0.00 56 1015.5
20260905210607 27 305 8.0 12.9 0.00 0.00 0.00 56 1015.6
20260905210106 28 297 4.8 8.0 0.00 0.00 0.00 57 1015.5
20260905205606 28 299 6.4 9.7 0.00 0.00 0.00 56 1015.5
20260905205108 27 302 3.2 4.8 0.00 0.00 0.00 57 1015.5
20260905204607 27 270 6.4 11.3 0.00 0.00 0.00 57 1015.5
20260905204107 27 266 4.8 11.3 0.00 0.00 0.00 59 1015.5
20260905203606 27 343 3.2 6.4 0.00 0.00 0.00 59 1015.4
20260905203106 27 306 6.4 11.3 0.00 0.00 0.00 58 1015.4
20260905202606 27 241 3.2 3.2 0.00 0.00 0.00 59 1015.4
20260905202107 27 268 3.2 6.4 0.00 0.00 0.00 58 1015.4
20260905201606 27 281 4.8 9.7 0.00 0.00 0.00 58 1015.4
20260905201106 27 210 3.2 3.2 0.00 0.00 0.00 58 1015.4
20260905200607 27 359 3.2 9.7 0.00 0.00 0.00 59 1015.5
20260905200107 27 42 3.2 6.4 0.00 0.00 0.00 57 1015.5
20260905195606 27 329 4.8 8.0 0.00 0.00 0.00 58 1015.6
20260905195107 27 327 6.4 9.7 0.00 0.00 0.00 58 1015.6
20260905194607 27 304 6.4 20.9 0.00 0.00 0.00 57 1015.6
20260905194107 27 305 6.4 9.7 0.00 0.00 0.00 58 1015.7
20260905193607 27 291 4.8 9.7 0.00 0.00 0.00 57 1015.8
20260905193106 27 319 6.4 9.7 0.00 0.00 0.00 58 1015.8
20260905192606 27 317 4.8 9.7 0.00 0.00 0.00 59 1015.8
20260905192107 27 275 6.4 11.3 0.00 0.00 0.00 60 1015.9
20260905191612 27 261 8.0 12.9 0.00 0.00 0.00 59 1015.9
20260905191106 27 314 4.8 12.9 0.00 0.00 0.00 59 1016.0
20260905190608 27 299 4.8 8.0 0.00 0.00 0.00 60 1016.0
20260905190106 27 318 8.0 12.9 0.00 0.00 0.00 60 1016.0
20260905185606 27 324 9.7 16.1 0.00 0.00 0.00 59 1016.2
20260905185106 27 280 3.2 6.4 0.00 0.00 0.00 62 1016.3
20260905184608 26 279 4.8 8.0 0.00 0.00 0.00 63 1016.3
20260905184106 26 294 4.8 8.0 0.00 0.00 0.00 65 1016.4
20260905183606 26 266 6.4 9.7 0.00 0.00 0.00 65 1016.4
20260905183106 26 228 6.4 9.7 0.00 0.00 0.00 64 1016.5
20260905182606 25 313 4.8 6.4 0.00 0.00 0.00 66 1016.6
20260905182106 25 276 8.0 9.7 0.00 0.00 0.00 67 1016.6
20260905181606 25 264 4.8 8.0 0.00 0.00 0.00 68 1016.8
20260905181106 25 296 4.8 8.0 0.00 0.00 0.00 67 1016.6
20260905180606 24 313 8.0 11.3 0.00 0.00 0.00 68 1016.6
20260905180108 24 254 6.4 9.7 0.00 0.00 0.00 68 1016.6
20260905175607 24 237 4.8 6.4 0.00 0.00 0.00 69 1016.8
20260905175108 24 256 6.4 8.0 0.00 0.00 0.00 68 1016.8
20260905174606 24 215 6.4 9.7 0.00 0.00 0.00 69 1016.8
20260905174106 24 235 3.2 4.8 0.00 0.00 0.00 69 1016.9
20260905173606 24 267 6.4 9.7 0.00 0.00 0.00 68 1016.9
20260905173108 23 314 6.4 9.7 0.00 0.00 0.00 70 1016.9
20260905172606 23 315 3.2 6.4 0.00 0.00 0.00 71 1017.0
20260905172106 23 317 6.4 8.0 0.00 0.00 0.00 70 1017.0
20260905171607 23 323 3.2 6.4 0.00 0.00 0.00 72 1016.9
20260905171107 23 323 3.2 4.8 0.00 0.00 0.00 73 1017.0
20260905170606 23 303 6.4 9.7 0.00 0.00 0.00 73 1017.1
20260905170106 23 294 1.6 4.8 0.00 0.00 0.00 78 1017.1
20260905165606 22 211 1.6 3.2 0.00 0.00 0.00 81 1017.4
20260905165106 22 304 1.6 3.2 0.00 0.00 0.00 82 1017.8
20260905164607 22 289 1.6 3.2 0.00 0.00 0.00 83 1018.1
20260905164107 22 327 1.6 3.2 0.00 0.00 0.00 83 1018.3
20260905163606 22 292 3.2 3.2 0.00 0.00 0.00 83 1018.3
20260905163106 22 306 1.6 3.2 0.00 0.00 0.00 83 1018.6
20260905162606 22 246 6.4 8.0 0.00 0.00 0.00 82 1018.7
20260905162107 22 282 4.8 6.4 0.00 0.00 0.00 81 1019.0
20260905161607 22 287 4.8 9.7 0.00 0.00 0.00 82 1019.1
20260905161106 23 288 4.8 8.0 0.00 0.00 0.00 82 1019.4
20260905160606 23 297 6.4 9.7 0.00 0.00 0.00 83 1019.3
20260905160106 23 303 3.2 3.2 0.00 0.00 0.00 85 1019.2
20260905155607 23 8 0.0 0.0 0.00 0.00 0.00 85 1019.2
20260905155106 23 259 1.6 1.6 0.00 0.00 0.00 84 1019.2
20260905154606 23 345 0.0 1.6 0.00 0.00 0.00 85 1019.2
20260905154107 23 199 1.6 1.6 0.00 0.00 0.00 84 1019.1
20260905153606 23 293 1.6 3.2 0.00 0.00 0.00 82 1019.3
20260905153106 23 267 3.2 3.2 0.00 0.00 0.00 83 1019.4
20260905152607 23 289 6.4 6.4 0.00 0.00 0.00 82 1019.4
20260905152106 23 299 4.8 8.0 0.00 0.00 0.00 82 1019.3
20260905151607 23 208 3.2 4.8 0.00 0.00 0.00 81 1019.2
20260905151107 23 210 4.8 8.0 0.00 0.00 0.00 81 1019.1
20260905150607 24 199 3.2 6.4 0.00 0.00 0.00 81 1019.1
20260905150107 24 8 0.0 3.2 0.00 0.00 0.00 81 1019.1
20260905145606 25 335 1.6 4.8 0.00 0.00 0.00 79 1019.0
20260905145106 26 305 8.0 19.3 0.00 0.00 0.00 77 1018.8
20260905144607 26 326 4.8 8.0 0.00 0.00 0.00 74 1018.4
20260905144107 26 285 1.6 3.2 0.00 0.00 0.00 75 1017.9
20260905143607 26 317 1.6 3.2 0.00 0.00 0.00 75 1017.8
20260905143107 25 350 3.2 6.4 0.00 0.00 0.00 76 1017.7
20260905142607 25 307 6.4 9.7 0.00 0.00 0.00 77 1017.7
20260905142106 25 232 3.2 6.4 0.00 0.00 0.00 78 1017.7
20260905141607 25 196 3.2 6.4 0.00 0.00 0.00 78 1017.8
20260905141106 25 288 3.2 6.4 0.00 0.00 0.00 78 1017.9
20260905140607 25 284 4.8 8.0 0.00 0.00 0.00 80 1017.9
20260905140106 25 272 4.8 8.0 0.00 0.00 0.00 79 1018.0
20260905135606 25 287 3.2 6.4 0.00 0.00 0.00 80 1018.0
20260905135108 25 219 4.8 8.0 0.00 0.00 0.00 79 1018.0
20260905134606 24 258 3.2 4.8 0.00 0.00 0.00 80 1018.0
20260905134106 24 265 6.4 11.3 0.00 0.00 0.00 81 1018.0
20260905133607 23 237 4.8 8.0 0.00 0.00 0.00 82 1018.0
20260905133107 23 238 4.8 6.4 0.00 0.00 0.00 85 1018.0
20260905132606 22 250 1.6 3.2 0.00 0.00 0.00 90 1018.0
20260905132106 22 295 0.0 1.6 0.00 0.00 0.00 94 1018.0
20260905131606 21 54 1.6 3.2 0.00 0.00 0.00 96 1017.9
20260905131106 21 360 0.0 0.0 0.00 0.00 0.00 96 1017.9
20260905130608 20 118 0.0 1.6 0.00 0.00 0.00 97 1018.0
20260905130107 20 360 0.0 0.0 0.00 0.00 0.00 97 1018.1
20260905125607 20 36 1.6 1.6 0.00 0.00 0.00 97 1018.1
20260905125106 20 358 3.2 3.2 0.00 0.00 0.00 97 1018.1
20260905124607 19 46 0.0 0.0 0.00 0.00 0.00 97 1018.1
20260905124107 19 360 0.0 0.0 0.00 0.00 0.00 97 1018.3
20260905123608 19 194 0.0 0.0 0.00 0.00 0.00 97 1018.3
20260905123106 18 326 0.0 1.6 0.00 0.00 0.00 97 1018.1
20260905122606 18 360 0.0 0.0 0.00 0.00 0.00 97 1018.0
20260905122106 18 360 0.0 0.0 0.00 0.00 0.00 97 1018.0
20260905121607 18 203 0.0 1.6 0.00 0.00 0.00 97 1017.9
20260905121106 18 360 0.0 0.0 0.00 0.00 0.00 97 1017.9
20260905120607 18 360 0.0 0.0 0.00 0.00 0.00 97 1017.9
20260905120107 17 360 0.0 0.0 0.00 0.00 0.00 97 1017.9
20260905115606 17 3 0.0 3.2 0.00 0.00 0.00 97 1017.9
20260905115106 17 1 1.6 1.6 0.00 0.00 0.00 97 1017.9
20260905114606 17 360 0.0 0.0 0.00 0.00 0.00 97 1017.9
20260905114106 17 360 0.0 0.0 0.00 0.00 0.00 97 1017.9
20260905113614 17 360 0.0 0.0 0.00 0.00 0.00 97 1017.9
20260905113106 17 360 0.0 0.0 0.00 0.00 0.00 97 1017.8
20260905112606 17 9 1.6 3.2 0.00 0.00 0.00 97 1017.8